Total_Precipitation_Accumulation
0.00 0.00 0.00 0.00 0.00 0.00 0.00 0.00 0.00 0.00 0.00 0.00 0.00 0.00 0.00 0.00 0.00 0.01 0.01 0.01 0.01 0.02 0.02 0.01 0.01 0.02 0.04
0.00 0.00 0.00 0.00 0.00 0.00 0.00 0.00 0.00 0.00 0.00 0.00 0.00 0.00 0.00 0.00 0.01 0.01 0.01 0.00 0.00 0.00 0.01 0.01 0.01 0.02 0.02
0.00 0.00 0.00 0.00 0.00 0.00 0.00 0.00 0.00 0.00 0.00 0.00 0.00 0.00 0.00 0.00 0.00 0.00 0.00 0.00 0.00 0.01 0.01 0.01 0.01 0.02 0.02
0.00 0.00 0.00 0.00 0.00 0.00 0.00 0.00 0.00 0.00 0.00 0.00 0.00 0.00 0.00 0.00 0.00 0.00 0.00 0.00 0.01 0.01 0.01 0.01 0.02 0.01 0.01
0.00 0.00 0.00 0.00 0.01 0.01 0.01 0.01 0.00 0.01 0.00 0.00 0.00 0.00 0.00 0.00 0.00 0.00 0.00 0.00 0.00 0.01 0.01 0.03 0.03 0.02 0.02
0.01 0.02 0.01 0.02 0.02 0.02 0.03 0.02 0.02 0.00 0.00 0.00 0.00 0.00 0.00 0.00 0.00 0.00 0.00 0.00 0.01 0.02 0.02 0.03 0.03 0.02 0.02
0.04 0.03 0.04 0.02 0.04 0.02 0.02 0.03 0.01 0.01 0.02 0.01 0.00 0.00 0.00 0.00 0.00 0.00 0.00 0.01 0.01 0.01 0.02 0.03 0.03 0.03 0.04
0.07 0.04 0.04 0.02 0.05 0.05 0.04 0.03 0.02 0.01 0.02 0.06 0.01 0.00 0.00 0.00 0.00 0.00 0.00 0.01 0.01 0.02 0.03 0.04 0.05 0.07 0.07
0.03 0.04 0.04 0.06 0.11 0.10 0.06 0.10 0.08 0.02 0.01 0.04 0.01 0.00 0.00 0.00 0.00 0.00 0.00 0.01 0.02 0.03 0.06 0.09 0.12 0.12 0.10
0.01 0.02 0.04 0.04 0.05 0.09 0.08 0.12 0.14 0.14 0.01 0.04 0.02 0.03 0.09 0.01 0.00 0.01 0.02 0.04 0.06 0.07 0.09 0.11 0.18 0.19 0.15
0.05 0.03 0.02 0.02 0.02 0.05 0.07 0.10 0.11 0.09 0.05 0.16 0.12 0.07 0.20 0.13 0.02 0.02 0.02 0.06 0.08 0.07 0.13 0.23 0.28 0.32 0.20
0.02 0.01 0.02 0.02 0.01 0.01 0.01 0.02 0.05 0.08 0.10 0.22 0.29 0.16 0.29 0.24 0.10 0.03 0.05 0.07 0.11 0.11 0.13 0.21 0.40 0.49 0.43
0.02 0.01 0.01 0.01 0.01 0.02 0.02 0.03 0.03 0.04 0.07 0.12 0.18 0.23 0.33 0.31 0.20 0.09 0.11 0.08 0.07 0.16 0.18 0.23 0.38 0.53 0.50
0.01 0.01 0.01 0.00 0.01 0.02 0.02 0.04 0.04 0.01 0.03 0.07 0.10 0.13 0.15 0.11 0.18 0.14 0.12 0.20 0.08 0.08 0.13 0.20 0.40 0.51 0.54
0.02 0.01 0.01 0.01 0.01 0.02 0.05 0.05 0.06 0.02 0.05 0.07 0.07 0.09 0.13 0.13 0.15 0.08 0.11 0.14 0.10 0.12 0.13 0.09 0.19 0.40 0.47
0.03 0.03 0.04 0.06 0.05 0.04 0.03 0.02 0.03 0.01 0.03 0.06 0.10 0.09 0.08 0.05 0.05 0.05 0.11 0.15 0.11 0.12 0.16 0.16 0.07 0.14 0.35
0.08 0.06 0.05 0.02 0.02 0.02 0.02 0.03 0.03 0.02 0.01 0.02 0.07 0.11 0.12 0.06 0.03 0.06 0.12 0.11 0.15 0.12 0.13 0.15 0.10 0.08 0.16